Regional Weather Roundup
Issued by NWS

Home | Current Version | Previous Version | Text Only | Print | Product List | Glossary Off
Versions: 1 2 3 4 5 6 7 8 9 10 11 12 13 14 15 16 17 18 19 20 21 22 23 24 25 26 27 28 29 30 31 32 33 34 35 36 37 38 39 40 41 42 43 44 45 46 47 48 49 50

000
ASUS45 KCYS 270810
RWRWY

WYOMING REGIONAL WEATHER ROUNDUP
NATIONAL WEATHER SERVICE CHEYENNE WY
100 AM MST TUE JAN 27 2015

NOTE:  "FAIR" INDICATES FEW OR NO CLOUDS BELOW 12,000 FEET
WITH NO SIGNIFICANT WEATHER AND/OR OBSTRUCTIONS TO VISIBILITY.

WYZ001-270900-
YELLOWSTONE NATIONAL PARK

CITY           SKY/WX    TMP DP  RH WIND       PRES   REMARKS
LK YELLOWSTONE   N/A     11   8  88 CALM      30.30F
W YELLOWSTONE  NOT AVBL

$$
WYZ002>013-054>058-071-098>099-270900-
NORTHERN WYOMING

CITY           SKY/WX    TMP DP  RH WIND       PRES   REMARKS
JACKSON        FAIR      10  10 100 NE5       30.31F WCI   2
CODY           FAIR      45  28  53 SW8       30.10F
GREYBULL       FAIR      19  18  95 W5        30.13F WCI  12
WORLAND        FAIR      21  19  92 SW3       30.12F
SHERIDAN       FAIR      40  25  55 CALM      29.98F
BUFFALO        FAIR      47  22  37 W7        30.04F
GILLETTE       FAIR      49  27  42 SW15      30.00F
HULETT           N/A    N/A N/A N/A MISG        N/A
NEWCASTLE      FAIR      32  28  86 NE3       30.07S

$$
WYZ014>020-022>026-101>103-270900-
CENTRAL WYOMING

CITY           SKY/WX    TMP DP  RH WIND       PRES   REMARKS
BIG PINEY      FAIR      18  15  88 W3        30.31S
PINEDALE       FAIR      12  12 100 NW8       30.31F WCI   1
DUBOIS         FAIR      36  19  51 W16       30.24F WCI  26
LANDER         FAIR      31  25  78 S3        30.19F
RIVERTON       FAIR      30  25  81 NW6       30.20F WCI  24
CASPER         FAIR      45  24  43 SW18G25   30.16F
DOUGLAS        FAIR      36  26  67 N6        30.11F WCI  31

$$
WYZ021-027>030-104>119-270900-
SOUTHERN WYOMING

CITY           SKY/WX    TMP DP  RH WIND       PRES   REMARKS
EVANSTON       FAIR      38  26  62 E9        30.26F WCI  31
KEMMERER       FAIR      28  21  74 N10       30.29F WCI  19
FORT BRIDGER   FAIR      33  31  91 W6        30.30F WCI  28
ROCK SPRINGS   FAIR      34  23  64 SE12      30.28F WCI  25
DIXON          FAIR      25  21  83 NE3       30.36R
RAWLINS        FAIR      26  22  84 N5        30.30F WCI  20
SARATOGA       FAIR      37  27  65 MISG      30.30F
LARAMIE        FAIR      30  20  66 SE7       30.28F WCI  23
CHEYENNE       FAIR      39  21  48 W14       30.20F WCI  31
TORRINGTON     FAIR      35  27  72 E10       30.09S WCI  27
PINE BLUFFS    FAIR      32  25  74 S7        30.16S WCI  26

$$



USA.gov is the U.S. government's official web portal to all federal, state and local government web resources and services.